When you browse on this site, cookies collect data to enhance your experience and personalize the content and advertising you see.
Visit our Privacy Policy to learn more. By continuing to use the site, you agree to this use of cookies and data.
  • En España
  • Lista de países
  • Para 7 días
  • Temperatura del agua
  • El tiempo en el mapa
  • Informadores
  • user-avatar
    Iniciar sesión

    Tiempo cada hora Phohan

    Hoy, 28 Mayo, Jueves

    Tiempo Temperatura Precipitaciones Viento Presión Humedad
    00:00 +15°C° 0 mm 2 mps 753 mmHg 63%
    01:00 +15°C° 0 mm 2 mps 752 mmHg 65%
    02:00 +15°C° 0 mm 2 mps 752 mmHg 67%
    03:00 +14°C° 0 mm 2 mps 752 mmHg 68%
    04:00 +14°C° 0 mm 2 mps 752 mmHg 69%
    05:00 +14°C° 0 mm 2 mps 752 mmHg 69%
    06:00 +14°C° 0 mm 2 mps 752 mmHg 70%
    07:00 +17°C° 0 mm 2 mps 752 mmHg 60%
    08:00 +20°C° 0 mm 2 mps 752 mmHg 51%
    09:00 +23°C° 0 mm 2 mps 752 mmHg 42%
    10:00 +25°C° 0 mm 2 mps 752 mmHg 38%
    11:00 +26°C° 0 mm 3 mps 752 mmHg 34%
    12:00 +27°C° 0 mm 3 mps 752 mmHg 30%
    13:00 +27°C° 0 mm 3 mps 752 mmHg 31%
    14:00 +27°C° 0 mm 3 mps 752 mmHg 32%
    15:00 +28°C° 0 mm 3 mps 752 mmHg 34%
    16:00 +26°C° 0 mm 3 mps 752 mmHg 41%
    17:00 +24°C° 0 mm 3 mps 752 mmHg 48%
    18:00 +21°C° 0 mm 3 mps 752 mmHg 56%
    19:00 +20°C° 0 mm 3 mps 752 mmHg 61%
    20:00 +19°C° 0 mm 2 mps 753 mmHg 67%
    21:00 +17°C° 0 mm 2 mps 753 mmHg 72%
    22:00 +16°C° 0 mm 2 mps 754 mmHg 73%
    23:00 +16°C° 0 mm 2 mps 754 mmHg 74%

    Mañana, 29 Mayo, Viernes

    Tiempo Temperatura Precipitaciones Viento Presión Humedad
    00:00 +15°C° 0 mm 2 mps 755 mmHg 75%
    01:00 +15°C° 0 mm 1 mps 755 mmHg 74%
    02:00 +15°C° 0 mm 1 mps 755 mmHg 74%
    03:00 +14°C° 0 mm 1 mps 755 mmHg 73%
    04:00 +15°C° 0 mm 1 mps 755 mmHg 74%
    05:00 +15°C° 0 mm 1 mps 755 mmHg 74%
    06:00 +15°C° 0 mm 1 mps 756 mmHg 75%
    07:00 +19°C° 0 mm 1 mps 756 mmHg 66%
    08:00 +22°C° 0 mm 1 mps 756 mmHg 58%
    09:00 +24°C° 0 mm 1 mps 757 mmHg 49%
    10:00 +25°C° 0 mm 1 mps 757 mmHg 46%
    11:00 +26°C° 0 mm 2 mps 757 mmHg 43%
    12:00 +27°C° 0 mm 3 mps 757 mmHg 39%
    13:00 +27°C° 0 mm 3 mps 757 mmHg 40%
    14:00 +26°C° 0 mm 3 mps 757 mmHg 41%
    15:00 +26°C° 0 mm 4 mps 757 mmHg 42%
    16:00 +25°C° 0 mm 3 mps 757 mmHg 46%
    17:00 +24°C° 0 mm 3 mps 757 mmHg 50%
    18:00 +23°C° 0 mm 2 mps 757 mmHg 54%
    19:00 +20°C° 0 mm 2 mps 758 mmHg 60%
    20:00 +19°C° 0 mm 1 mps 758 mmHg 65%
    21:00 +15°C° 0 mm 0 mps 759 mmHg 71%
    22:00 +15°C° 0 mm 0 mps 759 mmHg 70%
    23:00 +15°C° 0 mm 0 mps 759 mmHg 70%

    Pasado mañana, 30 Mayo, Sábado

    Tiempo Temperatura Precipitaciones Viento Presión Humedad
    00:00 +15°C° 0 mm 0 mps 760 mmHg 70%
    01:00 +14°C° 0 mm 0 mps 759 mmHg 71%
    02:00 +14°C° 0 mm 0 mps 759 mmHg 71%
    03:00 +14°C° 0 mm 0 mps 759 mmHg 71%
    04:00 +14°C° 0 mm 0 mps 759 mmHg 71%
    05:00 +14°C° 0 mm 0 mps 760 mmHg 71%
    06:00 +15°C° 0 mm 0 mps 760 mmHg 71%
    07:00 +17°C° 0 mm 0 mps 760 mmHg 63%
    08:00 +22°C° 0 mm 1 mps 760 mmHg 55%
    09:00 +25°C° 0 mm 1 mps 760 mmHg 47%
    10:00 +26°C° 0 mm 1 mps 760 mmHg 45%
    11:00 +27°C° 0 mm 2 mps 760 mmHg 42%
    12:00 +28°C° 0 mm 3 mps 760 mmHg 40%
    13:00 +28°C° 0 mm 3 mps 759 mmHg 40%
    14:00 +28°C° 0 mm 4 mps 759 mmHg 41%
    15:00 +27°C° 0 mm 4 mps 759 mmHg 41%
    16:00 +26°C° 0 mm 4 mps 758 mmHg 44%
    17:00 +25°C° 0 mm 3 mps 758 mmHg 47%
    18:00 +24°C° 0 mm 2 mps 758 mmHg 51%
    19:00 +21°C° 0 mm 2 mps 758 mmHg 55%
    20:00 +19°C° 0 mm 2 mps 759 mmHg 60%
    21:00 +18°C° 0 mm 1 mps 759 mmHg 65%
    22:00 +18°C° 0 mm 1 mps 759 mmHg 66%
    23:00 +16°C° 0 mm 1 mps 759 mmHg 67%

    31 Mayo, Domingo

    Tiempo Temperatura Precipitaciones Viento Presión Humedad
    00:00 +16°C° 0 mm 1 mps 759 mmHg 68%
    01:00 +15°C° 0 mm 1 mps 759 mmHg 68%
    02:00 +15°C° 0 mm 1 mps 759 mmHg 68%
    03:00 +15°C° 0 mm 1 mps 759 mmHg 67%
    04:00 +15°C° 0 mm 1 mps 759 mmHg 67%
    05:00 +15°C° 0 mm 1 mps 759 mmHg 67%
    06:00 +16°C° 0 mm 1 mps 759 mmHg 67%
    07:00 +20°C° 0 mm 1 mps 759 mmHg 59%
    08:00 +23°C° 0 mm 1 mps 759 mmHg 50%
    09:00 +26°C° 0 mm 1 mps 759 mmHg 42%
    10:00 +27°C° 0 mm 2 mps 759 mmHg 38%
    11:00 +29°C° 0 mm 2 mps 758 mmHg 34%
    12:00 +30°C° 0 mm 3 mps 758 mmHg 30%
    13:00 +30°C° 0 mm 4 mps 757 mmHg 31%
    14:00 +30°C° 0 mm 4 mps 757 mmHg 33%
    15:00 +30°C° 0 mm 5 mps 756 mmHg 34%
    16:00 +28°C° 0 mm 5 mps 756 mmHg 41%
    17:00 +27°C° 0 mm 5 mps 756 mmHg 47%
    18:00 +26°C° 0 mm 4 mps 756 mmHg 53%
    19:00 +23°C° 0 mm 4 mps 756 mmHg 59%
    20:00 +22°C° 0 mm 3 mps 756 mmHg 65%
    21:00 +20°C° 0 mm 3 mps 757 mmHg 72%
    22:00 +19°C° 0 mm 3 mps 757 mmHg 74%
    23:00 +19°C° 0 mm 2 mps 757 mmHg 77%

    1 Junio, Lunes

    Tiempo Temperatura Precipitaciones Viento Presión Humedad
    00:00 +18°C° 0 mm 2 mps 757 mmHg 80%
    01:00 +18°C° 0 mm 2 mps 757 mmHg 82%
    02:00 +18°C° 0 mm 2 mps 756 mmHg 83%
    03:00 +18°C° 0 mm 1 mps 756 mmHg 85%
    04:00 +19°C° 0 mm 1 mps 756 mmHg 84%
    05:00 +19°C° 0 mm 1 mps 756 mmHg 82%
    06:00 +20°C° 0 mm 1 mps 756 mmHg 81%
    07:00 +20°C° 0.3 mm 1 mps 756 mmHg 82%
    08:00 +21°C° 0.3 mm 1 mps 756 mmHg 83%
    09:00 +20°C° 0.3 mm 2 mps 756 mmHg 84%
    10:00 +21°C° 0.2 mm 2 mps 756 mmHg 81%
    11:00 +24°C° 0.2 mm 2 mps 755 mmHg 79%
    12:00 +25°C° 0.2 mm 3 mps 755 mmHg 76%
    13:00 +25°C° 0.8 mm 3 mps 755 mmHg 77%
    14:00 +25°C° 0.8 mm 4 mps 754 mmHg 78%
    15:00 +26°C° 0.8 mm 4 mps 754 mmHg 78%
    16:00 +25°C° 0.5 mm 4 mps 754 mmHg 80%
    17:00 +25°C° 0.5 mm 4 mps 754 mmHg 81%
    18:00 +25°C° 0.5 mm 4 mps 753 mmHg 82%
    19:00 +24°C° 0.1 mm 3 mps 753 mmHg 86%
    20:00 +21°C° 0.1 mm 3 mps 754 mmHg 89%
    21:00 +20°C° 0.1 mm 2 mps 754 mmHg 92%
    22:00 +20°C° 0 mm 2 mps 754 mmHg 93%
    23:00 +19°C° 0 mm 2 mps 754 mmHg 93%

    2 Junio, Martes

    Tiempo Temperatura Precipitaciones Viento Presión Humedad
    00:00 +19°C° 0 mm 2 mps 754 mmHg 94%
    01:00 +19°C° 0 mm 2 mps 753 mmHg 94%
    02:00 +19°C° 0 mm 2 mps 753 mmHg 94%
    03:00 +18°C° 0 mm 2 mps 753 mmHg 94%
    04:00 +18°C° 0 mm 2 mps 753 mmHg 94%
    05:00 +19°C° 0 mm 2 mps 753 mmHg 95%
    06:00 +19°C° 0 mm 2 mps 752 mmHg 95%
    07:00 +21°C° 0 mm 2 mps 753 mmHg 88%
    08:00 +24°C° 0 mm 2 mps 753 mmHg 81%
    09:00 +25°C° 0 mm 2 mps 753 mmHg 74%
    10:00 +27°C° 0 mm 3 mps 752 mmHg 67%
    11:00 +28°C° 0 mm 4 mps 752 mmHg 60%
    12:00 +30°C° 0 mm 5 mps 752 mmHg 53%
    13:00 +30°C° 0.1 mm 5 mps 751 mmHg 54%
    14:00 +30°C° 0.1 mm 5 mps 751 mmHg 54%
    15:00 +32°C° 0.1 mm 6 mps 750 mmHg 54%
    16:00 +30°C° 0.1 mm 5 mps 750 mmHg 56%
    17:00 +29°C° 0.1 mm 5 mps 750 mmHg 58%
    18:00 +29°C° 0.1 mm 4 mps 749 mmHg 60%
    19:00 +27°C° 0 mm 4 mps 750 mmHg 66%
    20:00 +25°C° 0 mm 4 mps 750 mmHg 73%
    21:00 +22°C° 0 mm 4 mps 751 mmHg 80%
    22:00 +21°C° 0 mm 4 mps 751 mmHg 84%
    23:00 +20°C° 0 mm 3 mps 751 mmHg 87%
    Mostrar más